EW2493 Weather Reports


time (UTC)temp
F
wind
direction
speed
knots
gust
knots
rain 1hr
in
rain 24hr
in
rain mn
in
humidity
%
barometer
mb
20260507104510 24 286 0.0 0.9 0.00 0.00 0.00 84 1005.7
20260507103008 25 88 0.0 0.9 0.00 0.00 0.00 83 1005.8
20260507101507 25 88 0.0 0.9 0.00 0.00 0.00 83 1005.9
20260507100004 25 88 0.0 0.9 0.00 0.00 0.00 82 1006.0
20260507094500 26 88 0.0 0.9 0.00 0.00 0.00 82 1005.9
20260507093058 27 88 0.0 0.9 0.00 0.00 0.00 79 1005.9
20260507091556 27 88 0.0 0.9 0.00 0.00 0.00 80 1006.0
20260507084550 29 88 0.0 0.9 0.00 0.00 0.00 74 1006.2
20260507083049 30 88 0.0 0.9 0.00 0.00 0.00 76 1006.1
20260507081544 32 88 0.0 0.0 0.00 0.00 0.00 72 1006.2
20260507080044 32 88 0.0 0.0 0.00 0.00 0.00 71 1006.2
20260507074546 34 89 0.0 0.9 0.00 0.00 0.00 70 1006.2
20260507073040 35 46 0.0 0.9 0.00 0.00 0.00 70 1006.2
20260507071536 35 74 0.9 2.6 0.00 0.00 0.00 71 1006.3
20260507070043 35 147 0.0 2.6 0.00 0.00 0.00 69 1006.2
20260507064535 35 159 2.6 4.3 0.00 0.00 0.00 68 1006.1
20260507063031 36 168 1.7 5.2 0.00 0.00 0.00 67 1006.2
20260507061528 36 160 2.6 5.2 0.00 0.00 0.00 67 1006.3
20260507060025 36 148 2.6 6.1 0.00 0.00 0.00 67 1006.3
20260507054523 36 154 3.5 7.0 0.00 0.00 0.00 66 1006.4
20260507053021 37 151 2.6 5.2 0.00 0.00 0.00 66 1006.5
20260507051518 37 159 2.6 6.1 0.00 0.00 0.00 66 1006.6
20260507050025 37 140 1.7 6.1 0.00 0.00 0.00 66 1006.6
20260507044512 37 130 2.6 5.2 0.00 0.00 0.00 64 1006.8
20260507043011 37 127 1.7 3.5 0.00 0.00 0.00 66 1007.0
20260507041509 37 112 1.7 3.5 0.00 0.00 0.00 64 1007.3
20260507040006 38 102 1.7 4.3 0.00 0.00 0.00 63 1007.5
20260507034505 37 117 0.9 2.6 0.00 0.00 0.00 62 1007.7
20260507033005 38 82 0.9 3.5 0.00 0.00 0.00 60 1007.8
20260507031506 38 80 0.9 2.6 0.00 0.00 0.00 60 1007.9
20260507030005 39 81 0.9 3.5 0.00 0.00 0.00 58 1007.9
20260507024506 40 57 1.7 3.5 0.00 0.00 0.00 57 1007.9
20260507023004 41 69 0.9 2.6 0.00 0.00 0.00 55 1007.8
20260507021503 42 69 0.9 3.5 0.00 0.00 0.00 54 1007.7
20260507020001 43 69 0.9 3.5 0.00 0.00 0.00 53 1007.7
20260507013104 46 47 0.9 2.6 0.00 0.00 0.00 48 1007.6
20260507011600 47 39 1.7 3.5 0.00 0.00 0.00 45 1007.6
20260507010059 48 40 0.9 2.6 0.00 0.00 0.00 43 1007.7
20260507004558 48 12 3.5 5.2 0.00 0.00 0.00 42 1007.7
20260507003101 49 348 3.5 5.2 0.00 0.00 0.00 40 1007.7
20260507001557 49 327 3.5 7.0 0.00 0.00 0.00 39 1007.9
20260507000054 50 5 1.7 4.3 0.00 0.00 0.00 39 1008.0
20260506234603 50 274 0.9 5.2 0.00 0.00 0.00 38 1008.1
20260506233055 49 306 0.0 9.6 0.00 0.00 0.00 39 1008.2
20260506231554 50 317 6.1 12.2 0.00 0.00 0.00 39 1008.2
20260506230048 50 308 1.7 12.2 0.00 0.00 0.00 40 1008.3
20260506224547 50 304 4.3 12.2 0.00 0.00 0.00 40 1008.4
20260506223045 50 292 3.5 13.0 0.00 0.00 0.00 38 1008.6
20260506221545 50 272 1.7 9.6 0.00 0.00 0.00 38 1008.7
20260506220041 50 296 5.2 16.5 0.00 0.00 0.00 39 1008.9
20260506214540 50 300 8.7 15.6 0.00 0.00 0.00 38 1009.2
20260506213038 49 277 0.9 9.6 0.00 0.00 0.00 39 1009.3
20260506211533 48 353 5.2 11.3 0.00 0.00 0.00 41 1009.6
20260506210034 48 328 7.8 14.8 0.00 0.00 0.00 41 1009.7
20260506204529 48 291 7.0 13.9 0.00 0.00 0.00 41 1009.8
20260506203036 48 311 5.2 13.9 0.00 0.00 0.00 40 1010.0
20260506201526 47 336 6.1 13.9 0.00 0.00 0.00 43 1010.1
20260506200023 47 320 8.7 13.9 0.00 0.00 0.00 43 1010.2
20260506194520 47 335 8.7 13.9 0.00 0.00 0.00 42 1010.3
20260506191518 47 319 5.2 15.6 0.00 0.00 0.00 42 1010.6
20260506190012 46 317 8.7 16.5 0.00 0.00 0.00 44 1010.7
20260506184510 46 327 7.8 13.9 0.00 0.00 0.00 44 1010.8
20260506183011 45 306 7.0 15.6 0.00 0.00 0.00 45 1011.0
20260506181507 45 314 7.0 18.2 0.00 0.00 0.00 45 1011.3
20260506180007 45 290 7.0 14.8 0.00 0.00 0.00 46 1011.5
20260506174502 44 308 7.8 13.9 0.00 0.00 0.00 45 1011.7
20260506173002 44 296 7.0 14.8 0.00 0.00 0.00 46 1011.9
20260506171617 44 331 7.0 14.8 0.00 0.00 0.00 46 1011.9
20260506170058 43 320 7.8 12.2 0.00 0.00 0.00 47 1012.1
20260506164606 43 313 10.4 16.5 0.00 0.00 0.00 47 1012.1
20260506163104 42 306 6.1 13.0 0.00 0.00 0.00 49 1012.2
20260506161622 42 296 4.3 13.0 0.00 0.00 0.00 51 1012.2
20260506160051 42 312 7.0 11.3 0.00 0.00 0.00 53 1012.2
20260506154552 42 329 8.7 13.9 0.00 0.00 0.00 52 1012.3
20260506153051 41 304 4.3 12.2 0.00 0.00 0.00 54 1012.3
20260506151548 41 291 1.7 10.4 0.00 0.00 0.00 58 1012.3
20260506150045 40 282 4.3 10.4 0.00 0.00 0.00 57 1012.4
20260506144543 40 306 4.3 10.4 0.00 0.00 0.00 58 1012.5
20260506143043 40 311 5.2 9.6 0.00 0.00 0.00 57 1012.6
20260506141538 39 290 5.2 11.3 0.00 0.00 0.00 61 1012.6
20260506140139 39 295 5.2 9.6 0.00 0.00 0.00 62 1012.7
20260506134533 38 296 4.3 7.0 0.00 0.00 0.00 63 1012.6
20260506133031 38 282 4.3 7.0 0.00 0.00 0.00 65 1012.5
20260506131532 37 304 1.7 4.3 0.00 0.00 0.00 76 1012.4
20260506130025 35 287 0.9 2.6 0.00 0.00 0.00 82 1012.4
20260506124518 34 285 0.9 2.6 0.00 0.00 0.00 83 1012.4
20260506123017 34 277 0.0 1.7 0.00 0.00 0.00 83 1012.2
20260506121614 33 277 0.0 1.7 0.00 0.00 0.00 83 1012.0
20260506120017 33 277 0.0 0.9 0.00 0.00 0.00 83 1011.8
20260506114510 32 277 0.0 1.7 0.00 0.00 0.00 84 1011.7
20260506113007 32 269 0.0 0.9 0.00 0.00 0.00 84 1011.5
20260506111505 32 269 0.0 1.7 0.00 0.00 0.00 84 1011.6
20260506110005 32 270 0.9 1.7 0.00 0.00 0.00 84 1011.5